Regional Weather Roundup
Issued by NWS Goodland, KS

Home | Current Version | Previous Version | Text Only | Print | Product List | Glossary Off
Versions: 1 2 3 4 5 6 7 8 9 10 11 12 13 14 15 16 17 18 19 20 21 22 23 24 25 26 27 28 29 30 31 32 33 34 35 36 37 38 39 40 41 42 43 44 45 46 47 48 49 50

000
ASUS43 KGLD 161259
RWRGLD

GOODLAND FORECAST AREA HOURLY WEATHER ROUNDUP
NATIONAL WEATHER SERVICE GOODLAND KS
600 AM MST SAT DEC 16 2017

...OFFICIAL OBSERVATIONS...

CITY           SKY/WX    TMP DP  RH WIND       PRES   REMARKS
GOODLAND KS    CLOUDY    26  11  52 W6        29.73S
HILL CITY KS   CLOUDY    24  13  62 W3        29.75S
IMPERIAL NEB   CLOUDY    30  14  51 NW3       29.76R
MCCOOK NEB     CLOUDY    25  12  58 W10       29.74S WCI  15
AKRON CO       CLOUDY    31  12  45 N7        29.76R
BURLINGTON CO  CLOUDY    29  10  45 NW6       29.74R
LIMON CO       CLOUDY    24  14  65 N8        29.74F
$$

...UNOFFICIAL OBSERVATIONS...

CITY           SKY/WX    TMP DP  RH WIND       PRES   REMARKS
LENORA KS        N/A     33  32  96 CALM        N/A
NORTON KS      CLEAR     23  10  58 SW7       29.73
SHARON SPRINGS   N/A     28  14  55 W7          N/A
TRENTON NEB      N/A     30  32 100 NW8         N/A
KIT CARSON CO    N/A     19   8  62 CALM        N/A
YUMA CO        FAIR      27  12  54 W10       29.76R WCI  17
$$




USA.gov is the U.S. government's official web portal to all federal, state and local government web resources and services.